Location: Bern�tre
(50.1974°N, 2.0915°E)
Time: 08:51:20
(UTC+00:00)

Cosmos 1908 Rocket - Pass Details

Date: 18 September 2020
Orbit: 607 x 631 km, 82.5° (Epoch: 24 October)

Event Time Altitude Azimuth Distance (km) Brightness Sun altitude
Rises 18:45:09 0° 197° (SSW) 2,860 7.0 -8.3°
Reaches altitude 10° 18:47:23 10° 200° (SSW) 1,963 6.2 -8.7°
Maximum altitude 18:51:41 64° 282° (WNW) 686 4.1 -9.4°
Drops below altitude 10° 18:56:04 10° 5° (N) 1,993 6.3 -10.0°
Sets 18:58:21 0° 8° (N) 2,908 7.1 -10.4°
